Regional Weather Roundup
Issued by NWS

Home | Current Version | Previous Version | Graphics & Text | Print | Product List | Glossary On
Versions: 1 2 3 4 5 6 7 8 9 10 11 12 13 14 15 16 17 18 19 20 21 22 23 24 25 26 27 28 29 30 31 32 33 34 35 36 37 38 39 40 41 42 43 44 45 46 47 48 49 50
000
ASUS45 KTFX 030604
RWRMT
MONTANA HOURLY WEATHER ROUNDUP
NATIONAL WEATHER SERVICE GREAT FALLS MT
1104 PM MST MON MAR 2 2015

NOTE: "FAIR" INDICATES FEW OR NO CLOUDS BELOW 12000 FEET WITH NO
SIGNIFICANT WEATHER AND/OR OBSTRUCTIONS TO VISIBILITY.

* THESE STATIONS ARE NOT UNDER NWS QUALITY CONTROL. THEY DO NOT
   REPORT WEATHER SUCH AS PRECIPITATION OR FOG.

MTZ001>007-043-030700-
WEST OF THE DIVIDE
CITY           SKY/WX    TMP DP  RH WIND       PRES   REMARKS
KALISPELL      CLOUDY    23   3  42 N18       30.08R WCI   9
MISSOULA       CLOUDY    23  10  57 SE15      30.03R WCI  10
BUTTE          LGT SNOW  12   3  67 NE8G23    29.86R
MULLAN PASS    CLOUDY    10   7  88 VRB5      29.82R WCI   1
* ANACONDA     CLOUDY    12   5  73 N21G28     N/A   WCI  -7
* ESSEX        N/A       16   1  51 SE5G13     N/A   WCI   8
* LINCOLN      N/A       14   6  70 NE10G22    N/A   WCI   1
* LOOKOUT PASS N/A       17  12  81 SW2        N/A
* POLSON       N/A       22   8  55 NE3G9      N/A
* RONAN APT    CLOUDY    27   7  42 NE7        N/A   WCI  19
* SEELEY LAKE  N/A       17  11  77 S3         N/A
* THOMP F APT  MOCLDY    25   9  50 N6G11      N/A   WCI  18
$$

MTZ008-052>055-030700-
SOUTHWEST MONTANA
CITY           SKY/WX    TMP DP  RH WIND       PRES   REMARKS
BOZEMAN        LGT SNOW  18  14  84 N13       29.91R VSB 3/4  WCI   5
DILLON         LGT SNOW  16  10  77 NE24G35   29.81R VSB 1 1/2 WCI  -2
* W YELLOWSTON MOCLDY    21  10  62 NW2G10     N/A
* THREE FORKS  CLOUDY    18   9  68 N22G29     N/A   WCI   1
* BOULDER HILL N/A        9   5  84 N18G27     N/A   WCI  -9
* MONIDA PASS  N/A       18  11  74 NE14G23    N/A   WCI   4
* RAYNOLDS PAS N/A       11   9  92 N22G27     N/A   WCI  -8
* WHITEHALL    N/A       17   7  65 NE12G26    N/A   WCI   4
* WISE RIVER   N/A       12   2  64 SE10G26    N/A   WCI  -1
$$

MTZ009>010-012-014-046-048-049-054-030700-
EAST SLOPES AND CENTRAL MONTANA
CITY           SKY/WX    TMP DP  RH WIND       PRES   REMARKS
CUT BANK       CLOUDY     9   3  76 N9        30.15R WCI  -4
GREAT FALLS    CLOUDY    12   7  80 NE15      30.13R WCI  -4
HELENA         CLOUDY    18   9  68 N14       30.05R WCI   4
* DEARBORN     N/A       18  12  77 VRB12G26    N/A   WCI   5
* EAST GLACIER N/A        8   4  84 E9G15      N/A   WCI  -5
* MONARCH      N/A        7   3  83 N15G20     N/A   WCI -10
* PENDROY      N/A        9   8  96 NE9        N/A   WCI  -4
* ROGERS PASS  N/A        9   5  84 S8         N/A   WCI  -3
* SWEET GRASS  N/A        8   0  70 N18        N/A   WCI -11
$$

MTZ011-013-016-021-035-040-045-047-050-051-030700-
NORTH CENTRAL MONTANA
CITY           SKY/WX    TMP DP  RH WIND       PRES   REMARKS
HAVRE          CLOUDY    12   1  61 N9        30.19R
LEWISTOWN      LGT SNOW  14  10  84 NW5       30.03R VSB 3/4  WCI   6
* N BAR RANCH  HAZE      12   7  80 NW12      30.00R VSB 2 1/2 WCI  -2
* CHESTER      N/A       12   2  64 NE12G20    N/A   WCI  -2
* DENTON       N/A       15   8  74 NW22G28    N/A   WCI  -3
* GEYSER       N/A       12   4  70 N19        N/A   WCI  -6
* JUDITH GAP   N/A       11  11 100 N32G38     N/A   WCI -11
* LOMA         N/A       16   4  59 N17G25     N/A
$$

MTZ017>020-022>027-061-062-030700-
NORTHEAST MONTANA
CITY           SKY/WX    TMP DP  RH WIND       PRES   REMARKS
GLASGOW        CLOUDY    16   1  51 N23G33    30.08R WCI  -2
GLENDIVE       CLOUDY    18   9  68 N17G22    29.97R WCI   3
JORDAN         CLOUDY    18   9  68 N22G31    30.03R WCI   1
SIDNEY         CLOUDY    18  10  71 NW14G22   30.01R WCI   4
WOLF POINT     CLOUDY    18   7  62 N17       30.07R WCI   3
* BEAVER HILL  N/A       15   9  77 N22G29     N/A   WCI  -3
* CIRCLE       N/A       17  10  74 NW14       N/A   WCI   3
* LINDSAY DVD  N/A       14   8  77 NW26G35    N/A   WCI  -6
* NAVAJO       N/A        8   1  73 NW18G36    N/A   WCI -11
* SACO         N/A       15   3  59 NW19G26    N/A   WCI  -2
$$

MTZ028>042-056>058-030700-
SOUTHCENTRAL AND SOUTHEAST MONTANA
CITY           SKY/WX    TMP DP  RH WIND       PRES   REMARKS
BAKER          LGT SNOW  18  10  71 NW21G28   29.89R WCI   1
BILLINGS       LGT SNOW  16  12  84 NE14      30.01R VSB 1 1/4 WCI   2
LIVINGSTON     LGT SNOW  18  10  71 E18       29.93R VSB 1 1/4 WCI   2
MILES CITY     CLOUDY    19  10  68 N22G30    29.99R WCI   2
* LAUREL APT   CLOUDY    19  12  74 N15G22     N/A   WCI   5
* ROUNDUP APT  CLOUDY    18   9  68 S14G20     N/A   WCI   4
* ALZADA       N/A       27  19  72 NW17G22    N/A   WCI  14
* HYSHAM       N/A       16  11  81 VRB8G16    N/A   WCI   5
* LAME DEER    N/A       14  12  92 VRB19G28    N/A   WCI  -3
* REED POINT   N/A       17  14  88 E13G18     N/A   WCI   3
$$

REGIONAL REPORTS...DAKOTAS
CITY           SKY/WX    TMP DP  RH WIND       PRES   REMARKS
WILLISTON      LGT SNOW  16   9  74 N23G32    29.97R WCI  -2
DICKINSON      CLOUDY    18  10  71 NW21G26   29.84R WCI   1
BEACH          LGT SNOW  14  10  84 N16G30    29.93R WCI  -2
CROSBY         LGT SNOW   9   5  84 NW18G25   29.97R WCI  -9
WATFORD CITY   LGT SNOW  16   9  74 N20G29    29.92R WCI  -1
BISMARCK       CLOUDY    21  16  81 NW16G24   29.82R WCI   7
GRAND FORKS    MOCLDY    25  18  75 S14       29.74F WCI  13
FARGO          PTCLDY    27  19  72 S22G32    29.78F WCI  13
BUFFALO SD     CLOUDY    21  14  74 N33G44    29.66F WCI   2
RAPID CITY     CLOUDY    36  19  50 N10       29.69F WCI  29
$$

REGIONAL REPORTS...WYOMING/IDAHO/WASHINGTON
CITY           SKY/WX    TMP DP  RH WIND       PRES   REMARKS
GILLETTE       LGT SNOW  25  19  78 N21G31    29.74R VSB 3/4  WCI  10
SHERIDAN       LGT SNOW  21  18  88 NW28G37   29.87R VSB 3/4  WCI   3
CODY           CLOUDY    18  12  77 N23G30    29.82R WCI   1
YELLOWSTONE LA CLOUDY    18  12  77 VRB3      29.64S
SALMON         CLOUDY    34  21  59 CALM      29.74R
MULLAN PASS    CLOUDY    10   7  88 VRB5      29.82S WCI   1
SAND POINT     CLOUDY    30  14  51 N16G23    30.05R WCI  19
SPOKANE        LGT SNOW  30  27  89 N13       30.00R VSB 2    WCI  20

$$



USA.gov is the U.S. government's official web portal to all federal, state and local government web resources and services.